Regional Weather Roundup
Issued by NWS

Home | Current Version | Previous Version | Graphics & Text | Print | Product List | Glossary On
Versions: 1 2 3 4 5 6 7 8 9 10 11 12 13 14 15 16 17 18 19 20 21 22 23 24 25 26 27 28 29 30 31 32 33 34 35 36 37 38 39 40 41 42 43 44 45 46 47 48 49 50
000
ASUS45 KCYS 251710
RWRWY

WYOMING REGIONAL WEATHER ROUNDUP
NATIONAL WEATHER SERVICE CHEYENNE WY
1000 AM MST TUE NOV 25 2014

NOTE:  "FAIR" INDICATES FEW OR NO CLOUDS BELOW 12,000 FEET
WITH NO SIGNIFICANT WEATHER AND/OR OBSTRUCTIONS TO VISIBILITY.

WYZ001-251800-
YELLOWSTONE NATIONAL PARK

CITY           SKY/WX    TMP DP  RH WIND       PRES   REMARKS
LK YELLOWSTONE   N/A     23  20  88 W10G21    30.00S WCI  12
W YELLOWSTONE  NOT AVBL

$$
WYZ002>013-054>058-071-098>099-251800-
NORTHERN WYOMING

CITY           SKY/WX    TMP DP  RH WIND       PRES   REMARKS
JACKSON        LGT SNOW  28  28 100 S9        30.09R VSB 3/4 WCI  20
CODY           CLOUDY    37  25  60 W14G26    29.86R WCI  29
GREYBULL       SNOW      27  26  96 CALM      29.93S VSB 1/2
WORLAND        CLOUDY    27  24  89 S5        29.92S WCI  22
SHERIDAN       LGT SNOW  33  31  92 S5        29.83S FOG     WCI  29
BUFFALO        LGT SNOW  32  29  88 S5        29.83S FOG     WCI  27
GILLETTE       LGT SNOW  32  29  88 W10       29.81S FOG     WCI  24
HULETT           N/A    N/A N/A N/A MISG        N/A
NEWCASTLE      LGT SNOW  27  25  93 CALM      29.84S

$$
WYZ014>020-022>026-101>103-251800-
CENTRAL WYOMING

CITY           SKY/WX    TMP DP  RH WIND       PRES   REMARKS
BIG PINEY      CLOUDY   N/A N/A N/A E7        30.12R
PINEDALE       LGT SNOW  27  27 100 NW6       30.12S VSB 1   WCI  20
DUBOIS         LGT SNOW  28  21  74 N20G32    29.96S WCI  15
LANDER         PTSUNNY   32  14  47 W7        29.93R WCI  26
RIVERTON       CLOUDY    29  16  58 W16       29.93S WCI  17
CASPER         CLOUDY    35  16  45 SW25G36   29.89S WCI  23
DOUGLAS        CLOUDY   N/A N/A N/A W17       29.86R

$$
WYZ021-027>030-104>119-251800-
SOUTHERN WYOMING

CITY           SKY/WX    TMP DP  RH WIND       PRES   REMARKS
EVANSTON       PTSUNNY   31  21  66 SW25G36   30.23S WCI  17
KEMMERER       LGT SNOW  30  25  80 W21G29    30.17R WCI  17
FORT BRIDGER   CLOUDY    32  21  63 W20G37    30.23R WCI  20
ROCK SPRINGS   CLOUDY    30  18  60 W32G43    30.12R WCI  14
DIXON          CLOUDY    28  13  55 SW16G26   30.22F WCI  15
RAWLINS        PTSUNNY   27  13  55 W38G54    30.00S WCI   9
SARATOGA       PTSUNNY   30  16  55 SW31G45   30.05S WCI  15
LARAMIE        CLOUDY    28  15  58 W32G43    29.93F WCI  12
CHEYENNE       CLOUDY    34  16  47 W41G60    29.87F WCI  18
TORRINGTON     CLOUDY    40  17  39 W30G43    29.85F WCI  28
PINE BLUFFS    CLOUDY    37  18  44 W20       29.90F WCI  27

$$


USA.gov is the U.S. government's official web portal to all federal, state and local government web resources and services.